Time,TemperatureF,DewpointF,PressureIn,WindDirection,WindDirectionDegrees,WindSpeedMPH,WindSpeedGustMPH,Humidity,HourlyPrecipIn,Conditions,Clouds,dailyrainin,SoftwareType,DateUTC
2013-07-21 00:14:00,75.7,74.0,30.07,East,85,0.0,0.0,95,0.00,,,0.04,weatherlink.com 1.10,2013-07-21 04:14:00,
2013-07-21 00:29:00,76.2,75.0,30.07,East,79,0.0,1.0,96,0.00,,,0.04,weatherlink.com 1.10,2013-07-21 04:29:00,
2013-07-21 00:44:00,76.6,75.0,30.07,East,100,0.0,1.0,95,0.00,,,0.04,weatherlink.com 1.10,2013-07-21 04:44:00,
2013-07-21 00:59:00,76.5,75.0,30.06,East,97,0.0,1.0,95,0.00,,,0.04,weatherlink.com 1.10,2013-07-21 04:59:00,
2013-07-21 01:15:00,76.5,75.0,30.07,ESE,117,0.0,1.0,95,0.00,,,0.04,weatherlink.com 1.10,2013-07-21 05:15:00,
2013-07-21 01:30:00,76.5,75.0,30.07,East,93,0.0,1.0,95,0.00,,,0.04,weatherlink.com 1.10,2013-07-21 05:30:00,
2013-07-21 01:45:00,76.3,75.0,30.06,ESE,104,0.0,1.0,95,0.00,,,0.04,weatherlink.com 1.10,2013-07-21 05:45:00,
2013-07-21 02:00:00,76.0,75.0,30.07,ENE,73,0.0,0.0,95,0.00,,,0.04,weatherlink.com 1.10,2013-07-21 06:00:00,
2013-07-21 02:15:00,76.1,75.0,30.07,ESE,108,0.0,1.0,96,0.00,,,0.04,weatherlink.com 1.10,2013-07-21 06:15:00,
2013-07-21 02:30:00,76.2,75.0,30.06,ESE,110,0.0,1.0,96,0.00,,,0.04,weatherlink.com 1.10,2013-07-21 06:30:00,
2013-07-21 02:45:00,76.0,75.0,30.06,East,98,0.0,1.0,96,0.00,,,0.04,weatherlink.com 1.10,2013-07-21 06:45:00,
2013-07-21 03:00:00,75.8,75.0,30.05,East,98,0.0,0.0,96,0.00,,,0.04,weatherlink.com 1.10,2013-07-21 07:00:00,
2013-07-21 03:15:00,75.9,75.0,30.05,ESE,114,0.0,0.0,96,0.00,,,0.04,weatherlink.com 1.10,2013-07-21 07:15:00,
2013-07-21 03:30:00,76.1,75.0,30.05,East,99,0.0,1.0,97,0.00,,,0.04,weatherlink.com 1.10,2013-07-21 07:30:00,
2013-07-21 03:45:00,76.2,75.0,30.05,ESE,113,0.0,1.0,97,0.00,,,0.04,weatherlink.com 1.10,2013-07-21 07:45:00,
2013-07-21 04:00:00,76.2,75.0,30.05,ESE,118,0.0,1.0,96,0.00,,,0.04,weatherlink.com 1.10,2013-07-21 08:00:00,
2013-07-21 04:15:00,76.0,75.0,30.05,ESE,110,0.0,1.0,96,0.00,,,0.04,weatherlink.com 1.10,2013-07-21 08:15:00,
2013-07-21 04:30:00,76.0,75.0,30.05,ESE,111,0.0,1.0,96,0.00,,,0.04,weatherlink.com 1.10,2013-07-21 08:30:00,
2013-07-21 04:45:00,76.0,75.0,30.04,East,101,0.0,1.0,96,0.00,,,0.04,weatherlink.com 1.10,2013-07-21 08:45:00,
2013-07-21 05:00:00,76.1,75.0,30.04,East,95,0.0,1.0,96,0.00,,,0.04,weatherlink.com 1.10,2013-07-21 09:00:00,
2013-07-21 05:15:00,76.2,75.0,30.04,NE,37,0.0,0.0,97,0.00,,,0.04,weatherlink.com 1.10,2013-07-21 09:15:00,
2013-07-21 05:30:00,76.1,75.0,30.05,East,83,0.0,0.0,97,0.00,,,0.04,weatherlink.com 1.10,2013-07-21 09:30:00,
2013-07-21 05:46:00,75.9,75.0,30.05,SE,129,0.0,0.0,97,0.00,,,0.04,weatherlink.com 1.10,2013-07-21 09:46:00,
2013-07-21 06:00:00,76.1,75.0,30.06,ESE,110,0.0,0.0,97,0.00,,,0.04,weatherlink.com 1.10,2013-07-21 10:00:00,
2013-07-21 06:15:00,76.2,75.0,30.06,ESE,118,0.0,0.0,97,0.00,,,0.04,weatherlink.com 1.10,2013-07-21 10:15:00,
2013-07-21 06:30:00,76.4,76.0,30.06,East,101,0.0,0.0,97,0.00,,,0.04,weatherlink.com 1.10,2013-07-21 10:30:00,
2013-07-21 06:45:00,76.7,76.0,30.06,ESE,108,0.0,0.0,97,0.00,,,0.04,weatherlink.com 1.10,2013-07-21 10:45:00,
2013-07-21 07:00:00,76.7,76.0,30.07,ENE,68,0.0,0.0,97,0.00,,,0.04,weatherlink.com 1.10,2013-07-21 11:00:00,
2013-07-21 07:15:00,76.9,76.0,30.07,ESE,109,0.0,0.0,97,0.00,,,0.04,weatherlink.com 1.10,2013-07-21 11:15:00,
2013-07-21 07:30:00,77.3,76.0,30.07,East,100,0.0,1.0,97,0.00,,,0.04,weatherlink.com 1.10,2013-07-21 11:30:00,
2013-07-21 07:45:00,77.6,77.0,30.08,ESE,121,0.0,1.0,97,0.00,,,0.04,weatherlink.com 1.10,2013-07-21 11:45:00,
2013-07-21 08:00:00,78.3,77.0,30.09,ESE,115,0.0,1.0,97,0.00,,,0.04,weatherlink.com 1.10,2013-07-21 12:00:00,
2013-07-21 08:15:00,78.9,78.0,30.10,East,94,0.0,1.0,97,0.00,,,0.04,weatherlink.com 1.10,2013-07-21 12:15:00,
2013-07-21 08:30:00,79.3,78.0,30.10,East,101,0.0,1.0,97,0.00,,,0.04,weatherlink.com 1.10,2013-07-21 12:30:00,
2013-07-21 08:45:00,79.8,79.0,30.10,ESE,120,0.0,1.0,96,0.00,,,0.04,weatherlink.com 1.10,2013-07-21 12:45:00,
2013-07-21 09:00:00,80.5,79.0,30.10,ESE,122,0.0,1.0,96,0.00,,,0.04,weatherlink.com 1.10,2013-07-21 13:00:00,
2013-07-21 09:15:00,81.5,80.0,30.10,SW,218,0.0,1.0,95,0.00,,,0.04,weatherlink.com 1.10,2013-07-21 13:15:00,
2013-07-21 09:30:00,82.5,80.0,30.11,ESE,103,0.0,1.0,93,0.00,,,0.04,weatherlink.com 1.10,2013-07-21 13:30:00,
2013-07-21 09:45:00,82.8,80.0,30.11,SSW,198,0.0,2.0,90,0.00,,,0.04,weatherlink.com 1.10,2013-07-21 13:45:00,
2013-07-21 10:00:00,83.4,80.0,30.11,South,191,0.0,1.0,89,0.00,,,0.04,weatherlink.com 1.10,2013-07-21 14:00:00,
2013-07-21 10:15:00,83.8,80.0,30.11,SE,143,0.0,1.0,88,0.00,,,0.04,weatherlink.com 1.10,2013-07-21 14:15:00,
2013-07-21 10:30:00,84.1,80.0,30.12,ESE,108,0.0,1.0,87,0.00,,,0.04,weatherlink.com 1.10,2013-07-21 14:30:00,
2013-07-21 10:45:00,84.5,80.0,30.11,SW,222,0.0,2.0,86,0.00,,,0.04,weatherlink.com 1.10,2013-07-21 14:45:00,
2013-07-21 11:00:00,85.0,80.0,30.11,WSW,239,0.0,2.0,84,0.00,,,0.04,weatherlink.com 1.10,2013-07-21 15:00:00,
2013-07-21 11:15:00,85.7,80.0,30.11,ESE,116,0.0,3.0,84,0.00,,,0.04,weatherlink.com 1.10,2013-07-21 15:15:00,
2013-07-21 11:30:00,87.4,80.0,30.12,East,95,4.0,4.0,79,0.00,,,0.04,weatherlink.com 1.10,2013-07-21 15:30:00,
2013-07-21 11:45:00,87.9,80.0,30.11,SSE,160,1.0,5.0,76,0.00,,,0.04,weatherlink.com 1.10,2013-07-21 15:45:00,
2013-07-21 12:00:00,88.1,79.0,30.12,SSE,163,2.0,6.0,75,0.00,,,0.04,weatherlink.com 1.10,2013-07-21 16:00:00,
2013-07-21 12:15:00,89.5,80.0,30.11,East,98,0.0,6.0,74,0.00,,,0.04,weatherlink.com 1.10,2013-07-21 16:15:00,
2013-07-21 12:30:00,89.1,79.0,30.11,ESE,116,0.0,7.0,73,0.00,,,0.04,weatherlink.com 1.10,2013-07-21 16:30:00,
2013-07-21 12:45:00,89.4,79.0,30.11,SE,132,2.0,4.0,71,0.00,,,0.04,weatherlink.com 1.10,2013-07-21 16:45:00,
2013-07-21 13:00:00,88.4,79.0,30.10,ESE,122,2.0,5.0,74,0.00,,,0.04,weatherlink.com 1.10,2013-07-21 17:00:00,
2013-07-21 13:15:00,88.1,79.0,30.10,SE,138,1.0,5.0,74,0.00,,,0.04,weatherlink.com 1.10,2013-07-21 17:15:00,
2013-07-21 13:30:00,88.9,79.0,30.09,SSE,163,1.0,7.0,73,0.00,,,0.04,weatherlink.com 1.10,2013-07-21 17:30:00,
2013-07-21 13:45:00,89.9,79.0,30.09,East,98,3.0,7.0,71,0.00,,,0.04,weatherlink.com 1.10,2013-07-21 17:45:00,
2013-07-21 14:00:00,88.8,79.0,30.09,ESE,106,1.0,5.0,73,0.00,,,0.04,weatherlink.com 1.10,2013-07-21 18:00:00,
2013-07-21 14:15:00,89.7,80.0,30.09,SSE,148,2.0,9.0,72,0.00,,,0.04,weatherlink.com 1.10,2013-07-21 18:15:00,
2013-07-21 14:30:00,90.8,79.0,30.08,ESE,112,1.0,6.0,69,0.00,,,0.04,weatherlink.com 1.10,2013-07-21 18:30:00,
2013-07-21 14:45:00,88.8,79.0,30.08,SE,135,3.0,9.0,73,0.00,,,0.04,weatherlink.com 1.10,2013-07-21 18:45:00,
2013-07-21 15:00:00,86.5,79.0,30.07,East,98,1.0,5.0,79,0.02,,,0.06,weatherlink.com 1.10,2013-07-21 19:00:00,
2013-07-21 15:15:00,86.7,79.0,30.06,East,89,4.0,7.0,78,0.02,,,0.06,weatherlink.com 1.10,2013-07-21 19:15:00,
2013-07-21 15:30:00,86.9,79.0,30.06,SE,127,3.0,9.0,77,0.02,,,0.06,weatherlink.com 1.10,2013-07-21 19:30:00,
2013-07-21 15:45:00,87.0,79.0,30.06,SE,135,3.0,9.0,76,0.02,,,0.06,weatherlink.com 1.10,2013-07-21 19:45:00,
2013-07-21 16:00:00,86.5,79.0,30.05,ENE,75,2.0,8.0,77,0.00,,,0.06,weatherlink.com 1.10,2013-07-21 20:00:00,
2013-07-21 16:15:00,85.6,78.0,30.05,SE,143,2.0,9.0,77,0.00,,,0.06,weatherlink.com 1.10,2013-07-21 20:15:00,
2013-07-21 16:31:00,84.9,78.0,30.05,ESE,116,5.0,8.0,80,0.00,,,0.00,weatherlink.com 1.10,2013-07-21 20:31:00,
2013-07-21 16:46:00,84.8,78.0,30.05,East,89,4.0,6.0,81,0.00,,,0.00,weatherlink.com 1.10,2013-07-21 20:46:00,
2013-07-21 17:01:00,84.6,79.0,30.07,WSW,240,1.0,4.0,82,0.00,,,0.00,weatherlink.com 1.10,2013-07-21 21:01:00,
2013-07-21 17:16:00,81.6,75.0,30.07,NNE,13,0.0,10.0,79,0.00,,,0.00,weatherlink.com 1.10,2013-07-21 21:16:00,
2013-07-21 17:31:00,79.4,72.0,30.06,NW,311,0.0,2.0,77,0.00,,,0.00,weatherlink.com 1.10,2013-07-21 21:31:00,
2013-07-21 17:46:00,79.3,72.0,30.04,East,92,0.0,2.0,77,0.00,,,0.00,weatherlink.com 1.10,2013-07-21 21:46:00,
2013-07-21 18:01:00,78.6,72.0,30.03,SE,131,2.0,2.0,79,0.00,,,0.00,weatherlink.com 1.10,2013-07-21 22:01:00,
2013-07-21 18:16:00,79.2,73.0,30.03,ESE,102,2.0,4.0,80,0.00,,,0.00,weatherlink.com 1.10,2013-07-21 22:16:00,
2013-07-21 18:31:00,81.3,76.0,30.04,East,98,0.0,3.0,83,0.00,,,0.00,weatherlink.com 1.10,2013-07-21 22:31:00,
2013-07-21 18:46:00,83.1,78.0,30.04,ESE,123,2.0,6.0,84,0.00,,,0.00,weatherlink.com 1.10,2013-07-21 22:46:00,
2013-07-21 19:01:00,83.5,78.0,30.03,NE,51,3.0,9.0,83,0.00,,,0.00,weatherlink.com 1.10,2013-07-21 23:01:00,
2013-07-21 19:16:00,83.6,78.0,30.05,ESE,118,1.0,6.0,83,0.00,,,0.00,weatherlink.com 1.10,2013-07-21 23:16:00,
2013-07-21 19:31:00,83.2,78.0,30.06,SE,134,0.0,4.0,83,0.00,,,0.00,weatherlink.com 1.10,2013-07-21 23:31:00,
2013-07-21 19:46:00,83.0,78.0,30.07,East,101,0.0,3.0,84,0.00,,,0.00,weatherlink.com 1.10,2013-07-21 23:46:00,
2013-07-21 20:01:00,82.9,77.0,30.08,ESE,102,0.0,2.0,83,0.00,,,0.00,weatherlink.com 1.10,2013-07-22 00:01:00,
2013-07-21 20:16:00,82.8,77.0,30.08,ESE,110,0.0,1.0,83,0.00,,,0.00,weatherlink.com 1.10,2013-07-22 00:16:00,
2013-07-21 20:31:00,82.8,78.0,30.09,SE,132,0.0,1.0,84,0.00,,,0.00,weatherlink.com 1.10,2013-07-22 00:31:00,
2013-07-21 20:46:00,82.7,78.0,30.09,ESE,114,0.0,1.0,85,0.00,,,0.00,weatherlink.com 1.10,2013-07-22 00:46:00,
2013-07-21 21:01:00,82.3,78.0,30.09,East,101,0.0,1.0,86,0.00,,,0.00,weatherlink.com 1.10,2013-07-22 01:01:00,
2013-07-21 21:16:00,82.0,78.0,30.09,ESE,111,0.0,0.0,87,0.00,,,0.00,weatherlink.com 1.10,2013-07-22 01:16:00,
2013-07-21 21:31:00,81.2,77.0,30.11,ESE,120,0.0,1.0,88,0.00,,,0.00,weatherlink.com 1.10,2013-07-22 01:31:00,
2013-07-21 21:46:00,80.7,77.0,30.12,East,90,0.0,0.0,89,0.00,,,0.00,weatherlink.com 1.10,2013-07-22 01:46:00,
2013-07-21 22:01:00,80.7,78.0,30.11,East,81,0.0,1.0,90,0.00,,,0.00,weatherlink.com 1.10,2013-07-22 02:01:00,
2013-07-21 22:16:00,80.8,78.0,30.12,ESE,108,0.0,1.0,90,0.00,,,0.00,weatherlink.com 1.10,2013-07-22 02:16:00,
2013-07-21 22:31:00,81.1,78.0,30.12,East,98,0.0,1.0,90,0.00,,,0.00,weatherlink.com 1.10,2013-07-22 02:31:00,
2013-07-21 22:46:00,80.8,78.0,30.12,ENE,58,0.0,1.0,90,0.00,,,0.00,weatherlink.com 1.10,2013-07-22 02:46:00,
2013-07-21 23:01:00,80.5,77.0,30.12,ESE,108,0.0,3.0,90,0.00,,,0.00,weatherlink.com 1.10,2013-07-22 03:01:00,
2013-07-21 23:16:00,80.4,77.0,30.12,ESE,108,0.0,1.0,88,0.00,,,0.00,weatherlink.com 1.10,2013-07-22 03:16:00,
2013-07-21 23:31:00,80.6,77.0,30.12,East,95,0.0,1.0,87,0.00,,,0.00,weatherlink.com 1.10,2013-07-22 03:31:00,
2013-07-21 23:46:00,80.3,76.0,30.12,East,99,0.0,2.0,86,0.00,,,0.00,weatherlink.com 1.10,2013-07-22 03:46:00,